[[{"header":{"parameterUnit":"m.s-1","parameterCategory":1,"la1":30.2991,"la2":30.254,"lo1":-89.0895,"lo2":-89.0444,"dy":0.0017,"dx":0.0017,"nx":28,"ny":28,"refTime":"2023-07-24T09:00:00:Z","depth":0,"parameterNumber":2,"parameterNumberName":"U-component_of_WINDS"},"data":[0,0,0,0,0,0,0,0,0,0,0,0,0,0,0,0,0,0,0,0,0,0,0,0,0,0,0,0,0,0,0,0,0,0,0,0,0,0,0,0,0,0,0,0,0,0,0,0,0,0,0,0,0,0,0,0,0,0,-0.901,-0.901,0,-0.8993,-0.8992,-0.8992,-0.8931,-0.893,-0.8929,-0.8927,-0.8911,-0.8912,-0.8913,0,0,0,0,0,0,0,0,0,0,0,0,0,-0.899,-0.8991,-0.901,-0.901,-0.9009,-0.8993,-0.8992,-0.8992,-0.8932,-0.893,-0.8928,-0.8927,-0.8911,-0.8912,-0.8913,0,0,0,0,0,0,0,0,0,0,0,0,0,-0.8988,-0.8991,-0.901,-0.8977,-0.8974,-0.8993,-0.8992,-0.8992,-0.8932,-0.893,-0.8928,-0.8926,-0.8911,-0.8912,-0.8913,-0.8962,0,0,-0.8917,-0.8918,0,0,0,0,0,0,0,0,-0.8989,-0.8989,-0.8982,-0.8979,-0.8976,-0.8962,-0.8979,-0.8982,-0.8933,-0.8948,-0.8927,-0.8925,-0.893,-0.8929,-0.8931,-0.8962,-0.8961,-0.8917,-0.8918,-0.8918,-0.8919,0,0,0,0,0,0,0,-0.8989,-0.899,-0.9003,-0.8982,-0.8978,-0.8963,-0.8961,-0.898,-0.8951,-0.8947,-0.8942,-0.8941,-0.8928,-0.893,-0.893,-0.8961,-0.8917,-0.8918,-0.8919,-0.8919,-0.9029,-0.9031,0,0,0,0,0,0,-0.8993,-0.899,-0.9004,-0.9002,-0.8977,-0.8965,-0.8962,-0.8969,-0.895,-0.8946,-0.8943,-0.8938,-0.8929,-0.8929,-0.8929,-0.8984,-0.8918,-0.892,-0.892,-0.9027,-0.903,-0.9032,0,0,0,0,0,0,-0.8993,-0.8995,-0.9004,-0.8995,-0.8995,-0.8968,-0.8975,-0.8969,-0.8971,-0.8947,-0.8942,-0.895,-0.8927,-0.8927,-0.8954,-0.8983,-0.892,-0.8921,-0.9025,-0.9028,-0.9031,-0.9096,0,0,0,0,0,0,-0.8993,-0.8996,-0.9014,-0.8996,-0.8996,-0.903,-0.8977,-0.8971,-0.8973,-0.8967,-0.8953,-0.8948,-0.8925,-0.8952,-0.8955,-0.8984,-0.8922,-0.9022,-0.9026,-0.903,-0.9092,-0.9101,-0.911,0,0,0,0,0,-0.8992,-0.9034,-0.9015,-0.9017,-0.9018,-0.9032,-0.9031,-0.9004,-0.8976,-0.8994,-0.8979,-0.8949,-0.8979,-0.8956,-0.8958,-0.8988,-0.902,-0.9025,-0.903,-0.9087,-0.91,-0.911,0,0,0,0,0,0,-0.9057,-0.9031,-0.901,-0.9047,-0.9042,-0.9021,-0.9044,-0.9018,-0.9021,-0.9015,-0.898,-0.8978,-0.9009,-0.9001,-0.8975,-0.9033,-0.8995,-0.9,-0.9038,-0.9049,-0.9058,-0.9059,-0.8923,0,0,0,0,0,-0.9076,-0.9088,-0.9065,-0.91,-0.9098,-0.9071,-0.9076,-0.9055,-0.9048,-0.9046,-0.9032,-0.9027,-0.9035,-0.9042,-0.9048,-0.909,-0.9085,-0.9111,-0.9121,-0.9128,-0.9133,-0.9153,-0.9164,-0.9048,-0.9048,-0.9048,0,0,-0.9114,-0.9102,-0.9112,-0.9112,-0.9106,-0.9119,-0.907,-0.9087,-0.9097,-0.9049,-0.9073,-0.9063,-0.9054,-0.9089,-0.9103,-0.9083,-0.9164,-0.9134,-0.9141,-0.9142,-0.9159,-0.917,-0.918,-0.9051,-0.9051,-0.905,0,0,-0.9191,-0.9183,-0.921,-0.9205,-0.9195,-0.9177,-0.9183,-0.9166,-0.9157,-0.9181,-0.9144,-0.9155,-0.9171,-0.9166,-0.9166,-0.9239,-0.9211,-0.9242,-0.929,-0.931,-0.9319,-0.9327,-0.9352,-0.9362,-0.9247,-0.9248,-0.9248,0,-0.9241,-0.9259,-0.9228,-0.9247,-0.9248,-0.9204,-0.9231,-0.9227,-0.922,-0.9222,-0.9199,-0.9216,-0.9208,-0.9239,-0.9257,-0.9259,-0.9264,-0.9244,-0.932,-0.9328,-0.9335,-0.9359,-0.9368,-0.9251,-0.9251,-0.9251,-0.925,0,-0.932,-0.9333,-0.9357,-0.935,-0.9353,-0.9377,-0.9348,-0.9356,-0.9334,-0.9318,-0.9341,-0.933,-0.9332,-0.9338,-0.9318,-0.9366,-0.9354,-0.9327,-0.9287,-0.935,-0.9372,-0.9381,-0.9257,-0.9255,-0.9254,-0.9253,0,0,-0.9438,-0.9412,-0.9422,-0.9417,-0.9403,-0.9413,-0.9433,-0.9435,-0.9441,-0.9438,-0.9453,-0.9467,-0.944,-0.944,-0.9418,-0.9436,-0.9493,-0.9406,-0.9405,-0.9422,-0.9545,-0.9565,-0.9576,-0.9475,-0.9476,-0.9478,-0.9545,0,-0.951,-0.9543,-0.9515,-0.9553,-0.9565,-0.9523,-0.954,-0.9533,-0.9519,-0.9526,-0.951,-0.9519,-0.9485,-0.9484,-0.9499,-0.9483,-0.9517,-0.9478,-0.9488,-0.9489,-0.9491,-0.9587,-0.9609,-0.9673,-0.9553,-0.9555,-0.9556,0,-0.9599,-0.9599,-0.9638,-0.9619,-0.9623,-0.9639,-0.9637,-0.9645,-0.9636,-0.9624,-0.9623,-0.9596,-0.9614,-0.9575,-0.9599,-0.9573,-0.9575,-0.9568,-0.9569,-0.9569,-0.9526,-0.9589,-0.9693,-0.9703,-0.9569,-0.9568,-0.9567,0,-0.968,-0.9689,-0.9713,-0.9711,-0.969,-0.9702,-0.9694,-0.9683,-0.9685,-0.9684,-0.9685,-0.9686,-0.9686,-0.9688,-0.9661,-0.9636,-0.9688,-0.9648,-0.9678,-0.9679,-0.9691,-0.9691,-0.9797,-0.9694,-0.9694,-0.9694,-0.9694,0,-0.9764,-0.9789,-0.9749,-0.9764,-0.9791,-0.9758,-0.9785,-0.9773,-0.9763,-0.9774,-0.9738,-0.975,-0.9714,-0.9722,-0.9702,-0.9724,-0.9725,-0.9715,-0.9709,-0.9718,-0.9719,-0.9719,-0.9713,-0.9696,-0.9696,-0.9695,-0.9695,0,-0.9858,-0.9833,-0.9856,-0.9834,-0.9829,-0.985,-0.983,-0.9843,-0.9825,-0.984,-0.9842,-0.9814,-0.9821,-0.9795,-0.9798,-0.9784,-0.9816,-0.9804,-0.982,-0.9815,-0.9847,-0.9844,-0.9956,-0.9969,-0.9859,-0.986,-0.9861,0,-0.9913,-0.9931,-0.991,-0.9915,-0.9909,-0.9917,-0.9918,-0.9886,-0.989,-0.9879,-0.9893,-0.9897,-0.9898,-0.9911,-0.9891,-0.9893,-0.9879,-0.9918,-0.9879,-0.9887,-0.9878,-0.9877,-0.9878,-0.9926,-0.9928,-0.9929,-0.993,0,-1.0012,-0.9998,-1.0002,-1.0001,-1.0003,-1.0001,-0.9996,-1.0002,-0.9968,-0.9973,-0.9979,-0.998,-0.9982,-0.9986,-0.9983,-0.9974,-0.9946,-0.9942,-0.9949,-0.9958,-0.9966,-0.9961,-0.9841,-0.994,-0.9939,-0.9938,-0.9938,-0.9937,-1.0088,-1.0101,-1.0088,-1.0093,-1.0086,-1.0082,-1.0092,-1.0075,-1.008,-1.0078,-1.0059,-1.0069,-1.0057,-1.005,-1.0044,-1.0051,-1.0033,-1.0043,-1.0046,-1.0049,-1.0054,-0.9965,-1.0051,-1.005,-1.005,-1.005,-1.005,0,-1.0184,-1.0173,-1.0178,-1.0171,-1.0175,-1.0148,-1.0141,-1.0145,-1.0154,-1.0146,-1.0147,-1.0154,-1.0157,-1.0137,-1.0137,-1.0146,-1.0133,-1.0147,-1.0146,-1.0144,-1.0071,-1.0064,-1.0158,-1.0158,-1.0158,-1.0158,-1.0158,-1.0158,-1.0234,-1.0255,-1.024,-1.0256,-1.0245,-1.0254,-1.0252,-1.0248,-1.0241,-1.0249,-1.0252,-1.0238,-1.0225,-1.0224,-1.0225,-1.0219,-1.022,-1.0239,-1.0228,-1.016,-1.0149,-1.0139,-1.0133,-1.024,-1.024,-1.0301,-1.0301,-1.0302]},{"header":{"parameterUnit":"m.s-1","parameterCategory":1,"la1":30.2991,"la2":30.254,"lo1":-89.0895,"lo2":-89.0444,"dy":0.0017,"dx":0.0017,"nx":28,"ny":28,"refTime":"2023-07-24T09:00:00:Z","depth":0,"parameterNumber":3,"parameterNumberName":"V-component_of_WINDS"},"data":[0,0,0,0,0,0,0,0,0,0,0,0,0,0,0,0,0,0,0,0,0,0,0,0,0,0,0,0,0,0,0,0,0,0,0,0,0,0,0,0,0,0,0,0,0,0,0,0,0,0,0,0,0,0,0,0,0,0,-3.5664,-3.5665,0,-3.5755,-3.5756,-3.5757,-3.573,-3.5728,-3.5726,-3.5725,-3.5814,-3.5818,-3.5822,0,0,0,0,0,0,0,0,0,0,0,0,0,-3.5462,-3.5466,-3.5664,-3.5665,-3.5666,-3.5755,-3.5756,-3.5758,-3.573,-3.5728,-3.5726,-3.5724,-3.5813,-3.5817,-3.5822,0,0,0,0,0,0,0,0,0,0,0,0,0,-3.5551,-3.5467,-3.5664,-3.5663,-3.5664,-3.5755,-3.5756,-3.5758,-3.5731,-3.5728,-3.5725,-3.5723,-3.5811,-3.5817,-3.5823,-3.5918,0,0,-3.5842,-3.5845,0,0,0,0,0,0,0,0,-3.5546,-3.5559,-3.5662,-3.5664,-3.5665,-3.5729,-3.5718,-3.5811,-3.5732,-3.5706,-3.5725,-3.5721,-3.5788,-3.5795,-3.5819,-3.5922,-3.5926,-3.5843,-3.5846,-3.5849,-3.5851,0,0,0,0,0,0,0,-3.554,-3.5554,-3.57,-3.5664,-3.5665,-3.5658,-3.5667,-3.5736,-3.5761,-3.5708,-3.5706,-3.5717,-3.5788,-3.5813,-3.5821,-3.5927,-3.5842,-3.5848,-3.5852,-3.5854,-3.6113,-3.6116,0,0,0,0,0,0,-3.5534,-3.555,-3.5697,-3.5703,-3.5597,-3.5664,-3.5674,-3.5711,-3.576,-3.5765,-3.572,-3.5716,-3.5804,-3.5813,-3.5824,-3.5937,-3.5849,-3.5855,-3.5858,-3.611,-3.6113,-3.6117,0,0,0,0,0,0,-3.5529,-3.5547,-3.5693,-3.5626,-3.5644,-3.567,-3.5711,-3.5714,-3.5739,-3.577,-3.5773,-3.5741,-3.5802,-3.5815,-3.5895,-3.594,-3.5858,-3.5863,-3.6106,-3.6111,-3.6115,-3.6166,0,0,0,0,0,0,-3.5524,-3.5546,-3.5583,-3.5627,-3.5648,-3.5764,-3.5714,-3.5718,-3.5751,-3.5746,-3.5791,-3.5795,-3.5801,-3.5886,-3.5901,-3.5947,-3.5868,-3.6102,-3.6108,-3.6114,-3.6161,-3.6172,-3.6182,0,0,0,0,0,-3.5517,-3.5593,-3.5585,-3.5603,-3.5695,-3.5767,-3.5779,-3.5785,-3.5754,-3.5791,-3.5811,-3.5794,-3.5933,-3.5894,-3.5911,-3.596,-3.6099,-3.6106,-3.6113,-3.6156,-3.617,-3.6182,0,0,0,0,0,0,-3.5552,-3.5599,-3.559,-3.5683,-3.5722,-3.5762,-3.5809,-3.5799,-3.5846,-3.584,-3.5844,-3.5854,-3.5936,-3.5956,-3.5912,-3.6054,-3.6011,-3.6022,-3.6038,-3.6052,-3.6062,-3.6055,-3.5873,0,0,0,0,0,-3.5571,-3.5627,-3.5664,-3.5743,-3.5762,-3.5783,-3.5814,-3.5816,-3.5855,-3.5871,-3.5896,-3.5934,-3.5986,-3.602,-3.607,-3.6164,-3.6172,-3.6206,-3.6216,-3.6225,-3.6234,-3.6284,-3.6299,-3.614,-3.614,-3.614,0,0,-3.561,-3.5642,-3.5677,-3.5751,-3.578,-3.5837,-3.5796,-3.5858,-3.59,-3.588,-3.5957,-3.5977,-3.6019,-3.6107,-3.6146,-3.6125,-3.628,-3.6234,-3.6241,-3.6245,-3.6293,-3.6308,-3.6322,-3.6145,-3.6144,-3.6143,0,0,-3.571,-3.5741,-3.5809,-3.584,-3.5887,-3.59,-3.5916,-3.5959,-3.5972,-3.605,-3.6036,-3.6085,-3.6175,-3.6206,-3.6233,-3.6345,-3.6331,-3.6361,-3.6417,-3.6466,-3.6478,-3.6489,-3.6529,-3.6543,-3.637,-3.637,-3.637,0,-3.5752,-3.5838,-3.5845,-3.5909,-3.5941,-3.5927,-3.5995,-3.6025,-3.6084,-3.6106,-3.6083,-3.6196,-3.6223,-3.6317,-3.6345,-3.6368,-3.6386,-3.6356,-3.6476,-3.6488,-3.6498,-3.6535,-3.655,-3.6374,-3.6373,-3.6373,-3.6373,0,-3.5887,-3.5947,-3.5997,-3.6057,-3.6094,-3.616,-3.6176,-3.6213,-3.6212,-3.6227,-3.6306,-3.6339,-3.6395,-3.6417,-3.6416,-3.6511,-3.6497,-3.6475,-3.6432,-3.6516,-3.6551,-3.6566,-3.6378,-3.6377,-3.6376,-3.6375,0,0,-3.6011,-3.6074,-3.6092,-3.6119,-3.617,-3.6215,-3.628,-3.6336,-3.6368,-3.641,-3.6463,-3.654,-3.652,-3.6551,-3.6553,-3.6597,-3.6683,-3.6569,-3.657,-3.6588,-3.6789,-3.6804,-3.6821,-3.6674,-3.6677,-3.6679,-3.6785,0,-3.6114,-3.623,-3.6238,-3.6342,-3.6396,-3.6384,-3.6441,-3.6477,-3.6493,-3.6541,-3.6558,-3.6613,-3.6583,-3.6601,-3.6644,-3.6663,-3.6723,-3.6656,-3.6722,-3.6725,-3.6711,-3.6839,-3.6856,-3.6954,-3.6799,-3.6801,-3.6803,0,-3.625,-3.6298,-3.6407,-3.645,-3.6473,-3.6524,-3.6576,-3.6623,-3.6663,-3.6672,-3.6707,-3.6703,-3.6768,-3.6724,-3.6813,-3.6767,-3.6795,-3.6809,-3.6813,-3.6818,-3.6768,-3.6847,-3.6986,-3.7,-3.6825,-3.6823,-3.6821,0,-3.6328,-3.6419,-3.6497,-3.652,-3.6572,-3.6608,-3.6631,-3.6669,-3.6702,-3.6748,-3.6769,-3.6821,-3.6849,-3.6889,-3.6898,-3.6865,-3.6987,-3.6944,-3.6995,-3.6995,-3.702,-3.7018,-3.7164,-3.704,-3.704,-3.7039,-3.7039,0,-3.6442,-3.6509,-3.6532,-3.658,-3.6654,-3.6663,-3.6736,-3.6757,-3.6791,-3.6841,-3.6834,-3.6881,-3.6891,-3.694,-3.6948,-3.702,-3.7033,-3.7041,-3.7042,-3.7041,-3.704,-3.7058,-3.7051,-3.7043,-3.7042,-3.7042,-3.7041,0,-3.6541,-3.656,-3.6643,-3.6686,-3.6698,-3.6751,-3.6788,-3.6832,-3.6848,-3.6912,-3.6927,-3.6951,-3.7008,-3.7022,-3.709,-3.7095,-3.718,-3.7175,-3.7167,-3.7166,-3.7216,-3.7211,-3.7378,-3.74,-3.7263,-3.7264,-3.7265,0,-3.6612,-3.6664,-3.6713,-3.6747,-3.6772,-3.6827,-3.6861,-3.6871,-3.6907,-3.6958,-3.6996,-3.7053,-3.7099,-3.719,-3.7213,-3.7264,-3.726,-3.7315,-3.7267,-3.7265,-3.726,-3.7256,-3.7261,-3.7324,-3.7325,-3.7326,-3.7327,0,-3.6736,-3.6743,-3.6794,-3.6848,-3.6889,-3.6932,-3.6973,-3.7,-3.7016,-3.7057,-3.7116,-3.7152,-3.7221,-3.7277,-3.7329,-3.7352,-3.7342,-3.7342,-3.7357,-3.7356,-3.7349,-3.7352,-3.719,-3.7338,-3.7337,-3.7336,-3.7336,-3.7335,-3.6823,-3.6868,-3.691,-3.6966,-3.6998,-3.7037,-3.7081,-3.7103,-3.7153,-3.7212,-3.7215,-3.7279,-3.7318,-3.7387,-3.7413,-3.7462,-3.7445,-3.7466,-3.7471,-3.7476,-3.748,-3.7342,-3.7471,-3.7471,-3.7471,-3.7471,-3.747,0,-3.6945,-3.6972,-3.7024,-3.7082,-3.7126,-3.7115,-3.716,-3.7197,-3.7254,-3.7292,-3.7338,-3.7406,-3.746,-3.7487,-3.7541,-3.7575,-3.7572,-3.7589,-3.7586,-3.7591,-3.7492,-3.7474,-3.759,-3.759,-3.759,-3.759,-3.759,-3.759,-3.7014,-3.709,-3.7102,-3.7193,-3.7219,-3.7283,-3.7309,-3.7344,-3.7375,-3.7451,-3.7497,-3.7515,-3.7549,-3.7605,-3.7654,-3.766,-3.768,-3.7699,-3.7703,-3.761,-3.7598,-3.7586,-3.7569,-3.7703,-3.7703,-3.7797,-3.7798,-3.7799]}]]